Springfield, VT

1:46 PM EDT on May 27, 2018 (GMT -0400)
Hartness State

Weather History for KVSF - January, 2013

Change the Weather History Date:

Thursday, January 24, 2013

  Actual Average Record
Temperature  
Mean Temperature 1 °F 19 °F  
Max Temperature 13 °F 29 °F 50 °F (1999)
Min Temperature -11 °F 9 °F -20 °F (2011)
Degree Days  
Heating Degree Days 64 46  
Month to date heating degree days 1010 1093  
Since 1 July heating degree days 3416 3956  
Cooling Degree Days 0 0  
Month to date cooling degree days 0  
Year to date cooling degree days 0  
Moisture  
Dew Point -14 °F    
Average Humidity 51    
Maximum Humidity 72    
Minimum Humidity 30    
Precipitation  
Precipitation 0.00 in 0.07 in 1.41 in (2017)
Month to date precipitation 0.37 2.34  
Year to date precipitation 0.37 2.34  
Sea Level Pressure  
Sea Level Pressure 30.19 in    
Wind  
Wind Speed 8 mph (WNW)    
Max Wind Speed 18 mph    
Max Gust Speed 32 mph    
Visibility 10 miles    
Events      
T = Trace of Precipitation, MM = Missing Value Source: NWS Daily Summary

Daily Weather History Graph

Daily Weather History Graph

Search for Another Location

Airport or City:

Astronomy

Jan. 24, 2013 Rise Set
Actual Time 7:13 AM EST 4:51 PM EST
Civil Twilight 6:42 AM EST 5:22 PM EST
Nautical Twilight 6:07 AM EST 5:57 PM EST
Astronomical Twilight 5:34 AM EST 6:31 PM EST
Moon 2:50 PM EST (1/24) 5:09 AM EST (1/24)
Length of Visible Light 10h 40m
Length of Day
9h 38m
Waxing Gibbous, 94% of the Moon is Illuminated
Jan 24
Waxing Gibbous
Jan 26
Full
Feb 3
Last Quarter
Feb 10
New
Feb 17
First Quarter

Hourly Weather History & Observations

Time (EST) Temp. Windchill Dew Point Humidity Pressure Visibility Wind Dir Wind Speed Gust Speed Precip Events Conditions
12:54 AM -4.0 °F -16.3 °F -15.0 °F 59% 30.16 in 10.0 mi West 5.8 mph - N/A   Clear
1:54 AM -7.1 °F - -17.0 °F 62% 30.17 in 10.0 mi Calm Calm - N/A   Clear
2:54 AM -7.1 °F - -16.1 °F 65% 30.15 in 10.0 mi Calm Calm - N/A   Clear
3:54 AM -6.0 °F -14.7 °F -16.1 °F 62% 30.14 in 10.0 mi WNW 3.5 mph - N/A   Clear
4:54 AM -4.0 °F -17.8 °F -15.0 °F 59% 30.14 in 10.0 mi West 6.9 mph - N/A   Clear
5:54 AM -6.0 °F -16.9 °F -16.1 °F 62% 30.16 in 10.0 mi ENE 4.6 mph - N/A   Clear
6:54 AM -9.0 °F - -17.0 °F 68% 30.17 in 10.0 mi Calm Calm - N/A   Clear
7:54 AM -2.9 °F -11.2 °F -15.0 °F 56% 30.18 in 10.0 mi Variable 3.5 mph - N/A   Clear
8:54 AM -0.0 °F -7.9 °F -13.0 °F 54% 30.18 in 10.0 mi Variable 3.5 mph - N/A   Clear
9:54 AM 3.0 °F -14.8 °F -13.0 °F 47% 30.19 in 10.0 mi NW 13.8 mph 21.9 mph N/A   Clear
10:54 AM 6.1 °F -10.2 °F -13.0 °F 41% 30.18 in 10.0 mi WNW 12.7 mph 21.9 mph N/A   Partly Cloudy
11:54 AM 8.1 °F -6.2 °F -14.1 °F 36% 30.17 in 10.0 mi WNW 10.4 mph 24.2 mph N/A   Clear
12:54 PM 9.0 °F -3.2 °F -13.0 °F 36% 30.16 in 10.0 mi NW 8.1 mph 26.5 mph N/A   Clear
1:54 PM 10.0 °F -4.5 °F -13.0 °F 35% 30.15 in 10.0 mi NW 11.5 mph 25.3 mph N/A   Clear
2:54 PM 10.9 °F -4.1 °F -11.9 °F 35% 30.16 in 10.0 mi WNW 12.7 mph 26.5 mph N/A   Clear
3:54 PM 12.9 °F -1.6 °F -14.1 °F 29% 30.15 in 10.0 mi WNW 12.7 mph 17.3 mph N/A   Clear
4:54 PM 10.9 °F -5.9 °F -15.0 °F 30% 30.16 in 10.0 mi West 16.1 mph 27.6 mph N/A   Clear
5:54 PM 10.0 °F -3.7 °F -15.0 °F 32% 30.19 in 10.0 mi WNW 10.4 mph 20.7 mph N/A   Clear
6:54 PM 9.0 °F -7.9 °F -15.0 °F 33% 30.22 in 10.0 mi WNW 15.0 mph 27.6 mph N/A   Clear
7:54 PM 8.1 °F -8.4 °F -14.1 °F 36% 30.25 in 10.0 mi WNW 13.8 mph 18.4 mph N/A   Clear
8:54 PM 6.1 °F -7.8 °F -14.1 °F 39% 30.27 in 10.0 mi NW 9.2 mph 18.4 mph N/A   Clear
9:54 PM 6.1 °F -7.8 °F -14.1 °F 39% 30.27 in 10.0 mi WNW 9.2 mph 25.3 mph N/A   Clear
10:54 PM 5.0 °F -8.1 °F -14.1 °F 41% 30.30 in 10.0 mi NNW 8.1 mph 17.3 mph N/A   Clear
11:54 PM 5.0 °F -8.1 °F -13.0 °F 43% 30.30 in 10.0 mi WNW 8.1 mph 25.3 mph N/A   Clear